Wetbulb
42.07 44.29 47.76 46.62 47.69 47.51 43.52 43.55 42.41 44.41 47.87 50.88 52.93 53.97 56.02 58.42 59.74 61.16 63.23 63.45 63.21 63.08 62.99 64.06 65.01 66.04 67.69 67.78 67.65 67.76 66.31 65.44 66.03 68.25 70.72 70.15 70.47 68.80 68.53 68.21 69.49 69.18 68.17 67.63
42.61 45.68 48.41 47.14 47.86 47.80 48.09 47.53 45.99 46.64 46.80 52.58 55.61 56.64 57.85 58.95 60.20 61.81 63.05 63.46 63.65 63.46 63.75 64.29 65.23 65.48 66.98 67.25 67.40 68.37 68.57 68.64 69.16 69.41 69.20 69.27 69.90 69.09 68.57 67.40 67.29 68.03 68.28 67.49
38.25 44.39 44.97 41.76 46.52 47.64 48.16 48.76 48.20 44.57 48.45 52.46 55.24 57.09 57.69 59.07 61.08 62.22 63.32 63.80 63.12 63.41 63.23 63.34 64.32 64.99 65.29 65.88 66.46 66.51 66.97 67.99 67.92 67.60 68.46 67.83 68.35 68.89 69.40 68.55 67.22 66.81 66.46 67.67
40.32 40.69 35.85 44.77 48.45 50.19 48.96 51.25 50.98 50.94 51.51 52.98 56.36 59.19 59.03 61.20 61.74 62.69 63.47 63.46 62.99 63.24 63.03 62.80 62.89 63.02 63.31 63.73 64.30 65.57 65.32 65.57 67.08 66.90 65.61 66.18 67.83 68.14 68.30 68.62 68.03 66.49 65.93 66.57
40.80 38.65 42.02 46.52 49.87 50.07 48.72 48.11 52.82 52.38 53.79 54.67 56.31 57.62 55.85 60.60 62.53 63.75 63.73 64.10 63.65 63.60 62.49 61.87 62.38 62.13 61.63 61.83 63.04 65.76 65.88 66.58 66.59 67.27 66.81 66.74 66.41 66.65 65.84 64.35 64.02 63.80 64.39 64.75
39.03 37.53 36.83 44.91 51.03 53.56 50.72 43.84 53.07 53.97 53.09 54.89 57.43 52.79 56.84 60.13 61.95 63.28 63.95 63.64 62.81 63.04 62.27 61.21 60.91 60.28 60.06 60.05 60.87 60.84 61.89 63.85 64.58 64.45 65.59 65.61 65.14 64.56 64.50 65.04 66.06 66.06 66.45 65.60
37.91 37.34 41.78 48.85 53.30 53.44 43.65 44.05 51.75 53.32 53.58 56.00 54.98 58.31 60.37 61.23 61.41 63.36 63.73 62.55 63.32 63.12 62.13 61.52 60.73 59.47 58.75 59.13 59.60 61.45 62.65 63.07 63.22 63.13 62.71 62.40 63.84 64.85 64.24 66.29 64.45 62.67 61.52 60.65
37.31 36.26 36.85 52.66 52.84 46.81 47.59 50.27 52.54 53.64 54.71 54.49 57.30 57.56 59.80 61.59 61.65 62.63 62.45 62.72 63.83 62.75 62.61 62.41 62.40 61.16 60.23 60.63 62.11 64.09 65.39 66.99 65.70 63.85 64.68 64.69 64.09 62.29 62.51 65.20 63.55 61.58 60.67 60.15
42.32 40.57 49.28 51.31 50.42 52.14 51.49 50.46 53.48 54.02 56.00 56.22 57.23 58.47 60.22 61.36 61.85 62.74 62.95 63.20 63.58 62.29 61.07 61.47 62.05 62.52 62.09 63.89 63.89 63.42 62.73 63.43 64.48 64.82 64.79 65.07 64.51 64.66 64.34 64.50 63.05 61.26 60.56 59.27
43.73 46.74 49.99 51.02 53.48 54.29 54.34 53.26 54.43 55.33 57.48 60.40 58.79 60.02 60.34 61.65 62.10 62.51 62.83 62.71 63.30 62.79 61.31 60.79 62.24 63.35 63.33 64.39 62.90 62.51 62.22 61.43 63.24 61.61 59.46 59.38 60.41 62.12 63.03 62.48 61.96 61.38 60.17 59.27
44.74 47.21 48.29 52.95 54.10 53.70 55.69 56.11 55.69 57.34 58.41 58.26 62.05 61.49 62.14 62.34 62.25 62.83 63.04 63.49 63.69 61.96 60.84 60.86 61.58 62.07 63.08 62.28 62.12 62.04 61.83 60.33 60.35 58.74 57.41 54.12 50.83 51.29 55.57 52.76 52.63 60.23 60.60 58.70
42.72 48.31 47.24 48.25 51.91 55.24 54.75 55.08 55.56 56.88 58.02 59.08 62.05 61.65 62.56 62.51 63.26 63.12 63.03 63.07 61.94 60.32 60.37 60.04 60.60 60.82 61.60 61.53 61.20 61.25 60.65 60.57 58.22 56.23 53.25 54.20 54.16 52.94 48.36 46.34 45.23 45.93 47.02 53.57
48.02 51.25 50.71 52.20 54.21 56.77 55.36 55.22 56.51 58.31 58.86 58.49 60.53 63.11 62.40 61.86 62.62 61.11 62.06 61.89 60.94 60.27 60.26 60.13 59.57 59.32 59.68 59.80 60.39 62.37 62.05 60.44 56.95 54.98 53.92 53.27 53.65 54.28 53.90 51.56 46.41 44.43 44.30 46.48
52.32 52.42 50.37 52.48 51.98 55.17 55.89 56.55 57.48 59.78 61.88 61.57 62.90 63.07 62.45 61.30 60.26 61.31 61.02 61.70 61.54 60.55 60.24 59.43 57.94 57.48 60.13 60.88 61.06 62.49 60.40 57.35 58.52 56.85 55.97 55.10 55.61 56.51 56.01 54.64 52.71 52.00 48.25 47.55
48.30 50.93 51.49 52.06 53.11 54.19 56.45 56.84 57.36 58.53 60.75 61.74 63.84 62.35 62.07 60.55 59.98 60.24 59.72 60.64 60.92 60.26 59.16 58.27 57.57 57.98 59.68 59.73 61.62 62.36 60.94 59.00 58.88 58.52 59.45 56.81 57.25 56.51 54.75 53.95 53.48 52.39 51.87 48.80
48.97 49.68 49.93 50.71 51.62 53.98 55.87 56.62 56.92 57.22 61.02 61.11 61.32 61.35 61.71 61.93 60.19 58.55 59.36 60.06 59.01 58.17 57.89 58.19 58.03 59.34 60.15 59.69 59.38 58.97 59.34 58.52 58.39 59.43 58.55 57.09 57.13 57.29 56.55 56.11 54.83 54.49 54.94 54.56
46.15 46.58 48.94 49.43 51.50 52.71 53.97 56.45 57.30 56.63 60.70 60.00 60.33 62.01 62.11 61.32 60.05 58.61 58.82 59.96 59.50 58.75 58.45 58.72 58.84 60.17 60.51 60.41 60.07 59.92 58.96 58.52 59.27 58.15 57.35 57.51 57.49 57.55 56.81 57.61 57.88 56.53 54.35 54.20
49.90 50.45 50.04 52.76 52.13 54.04 55.69 57.47 58.47 58.81 58.97 60.69 61.00 61.82 60.85 59.92 59.22 58.10 58.45 57.08 57.12 56.99 57.99 59.12 60.04 60.76 60.78 60.74 60.38 59.88 59.14 58.45 58.66 58.43 58.52 57.65 57.81 57.81 57.27 57.05 57.11 55.91 54.79 53.73
50.63 50.48 52.27 53.48 54.09 55.46 57.63 58.72 59.05 59.92 60.28 60.36 60.98 60.95 60.79 60.45 59.05 57.34 57.16 57.70 57.13 56.39 57.50 59.32 61.18 61.21 60.01 60.82 60.79 59.90 59.74 59.03 58.49 58.31 58.11 56.79 57.39 57.17 57.05 56.69 56.63 56.69 56.49 54.81
53.39 54.47 53.67 54.97 57.82 56.92 56.83 58.53 59.54 60.09 60.41 60.59 61.20 60.72 59.89 58.19 57.33 56.39 57.51 57.76 58.57 59.23 59.05 60.04 60.91 60.01 59.50 60.97 62.39 60.32 59.90 59.92 59.43 58.37 57.81 57.53 57.21 56.69 53.71 52.78 56.59 56.69 56.43 55.02
55.55 56.06 54.30 56.39 56.81 57.52 58.91 59.75 59.83 59.28 60.14 60.56 60.37 60.03 59.58 58.07 57.20 55.67 54.92 55.97 57.16 58.01 60.07 60.23 60.91 60.48 60.14 60.55 61.31 59.26 55.99 55.89 57.19 57.43 57.40 56.68 56.30 55.05 51.41 51.81 51.78 53.43 54.60 54.24
51.72 54.00 56.15 57.54 57.00 57.94 59.58 60.17 60.10 59.84 59.26 59.86 60.49 60.35 58.84 55.82 54.79 54.16 55.48 56.13 56.52 55.34 59.13 59.71 60.74 60.16 60.41 60.85 56.56 55.22 54.21 53.84 53.27 52.30 53.31 54.36 54.01 53.20 51.44 52.14 51.76 52.17 52.55 51.84
55.78 58.16 59.26 58.10 58.26 58.65 60.08 59.37 59.82 59.60 59.26 59.93 59.64 58.42 57.52 56.89 56.51 54.99 53.87 55.71 57.18 56.32 59.24 59.33 58.43 57.66 58.01 59.08 57.02 55.91 55.40 53.68 52.07 51.28 53.16 53.64 53.29 52.13 51.61 51.62 52.02 52.65 52.19 51.90
56.90 58.37 58.57 59.72 59.89 59.26 58.20 58.92 59.50 60.34 59.82 59.40 60.28 59.79 58.14 56.83 56.90 57.77 58.35 55.47 55.45 55.30 58.56 58.73 57.16 55.87 55.33 56.45 56.15 56.03 56.17 54.65 52.76 52.40 53.80 49.83 53.32 53.22 51.97 51.57 52.09 52.90 53.62 52.89
57.51 58.17 58.95 59.61 59.47 57.85 56.67 58.02 58.09 57.47 57.81 57.06 58.15 60.27 60.03 58.79 59.04 60.15 60.66 59.67 56.04 56.27 59.37 55.87 55.61 55.23 56.47 55.83 55.69 55.99 56.21 55.33 54.87 55.46 55.97 54.74 53.21 53.50 54.78 54.11 55.37 55.29 55.17 55.63
55.71 57.11 57.64 58.05 57.63 57.57 56.79 56.91 55.89 56.66 56.83 55.69 57.23 58.52 59.47 59.38 59.16 59.43 61.18 59.86 60.97 56.43 59.46 58.74 58.41 57.28 57.61 56.87 56.86 56.82 56.27 55.56 55.29 55.60 56.29 56.99 56.51 56.11 56.79 57.29 56.39 56.03 56.23 56.31
55.59 52.93 56.85 57.25 58.06 57.88 56.75 56.55 56.73 56.27 56.07 56.71 57.34 58.97 60.55 61.07 60.06 59.92 58.13 60.58 59.47 60.20 59.43 58.95 58.91 57.77 58.79 58.43 56.98 55.67 54.69 53.80 50.61 54.60 54.68 57.21 58.60 57.88 56.99 55.91 55.93 55.93 55.95 56.29
MSLP
1003.04 1002.64 1002.64 1002.50 1003.19 1003.91 1004.78 1005.21 1005.90 1005.71 1005.52 1004.52 1004.06 1003.82 1004.30 1004.68 1005.35 1005.86 1006.51 1007.47 1007.99 1008.34 1008.66 1008.80 1008.99 1009.07 1009.02 1009.10 1009.36 1009.70 1010.07 1010.44 1010.42 1010.62 1011.24 1011.90 1011.79 1012.13 1013.76 1014.00 1013.59 1013.52 1014.12 1014.60
1003.52 1002.72 1002.53 1002.47 1002.68 1003.04 1003.70 1004.23 1004.52 1004.52 1004.42 1003.46 1003.32 1004.01 1004.18 1004.49 1004.90 1005.74 1006.58 1007.67 1008.60 1008.82 1008.81 1008.96 1009.04 1008.95 1008.89 1009.02 1009.09 1009.31 1009.66 1009.67 1009.76 1010.02 1010.66 1011.35 1011.49 1012.12 1012.83 1013.06 1013.17 1013.45 1013.53 1013.90
1004.36 1003.20 1003.08 1003.02 1002.21 1002.34 1002.84 1003.12 1003.36 1003.87 1003.29 1003.30 1003.18 1003.58 1003.38 1003.90 1004.59 1005.46 1006.49 1007.50 1008.54 1008.47 1008.88 1009.36 1009.57 1009.45 1009.44 1009.47 1009.34 1009.34 1009.46 1009.47 1009.63 1009.97 1009.98 1010.42 1010.94 1011.70 1011.94 1012.17 1012.29 1012.89 1013.10 1013.61
1005.33 1004.60 1003.64 1002.05 1001.29 1001.09 1001.47 1002.04 1002.32 1002.39 1002.38 1002.60 1002.43 1001.79 1002.55 1003.17 1003.76 1004.93 1005.90 1007.11 1007.50 1008.26 1008.69 1008.77 1009.34 1009.69 1009.74 1009.74 1009.71 1009.81 1009.81 1009.73 1009.80 1010.06 1010.26 1010.51 1010.73 1011.03 1011.29 1011.68 1012.14 1012.48 1013.00 1013.44
1006.04 1005.30 1004.05 1002.31 1001.52 1001.33 1001.54 1001.86 1001.69 1001.68 1001.98 1001.94 1002.04 1002.79 1002.80 1002.89 1003.41 1004.07 1005.05 1006.16 1007.21 1008.17 1008.39 1009.02 1009.58 1009.81 1009.90 1010.13 1010.19 1010.14 1010.01 1010.00 1010.18 1010.29 1010.42 1010.78 1011.29 1011.46 1011.67 1012.07 1012.35 1012.64 1012.74 1012.94
1006.65 1005.71 1004.49 1003.17 1002.18 1001.57 1001.51 1002.45 1002.07 1001.46 1001.82 1001.88 1002.18 1003.08 1001.86 1002.21 1003.21 1004.38 1005.12 1006.06 1006.91 1007.83 1008.43 1009.23 1009.69 1009.80 1010.10 1010.44 1010.48 1010.54 1010.51 1010.53 1010.47 1010.46 1010.68 1010.97 1011.27 1011.55 1011.84 1012.02 1012.14 1012.15 1012.09 1012.23
1006.81 1006.08 1004.91 1003.80 1003.08 1002.57 1003.19 1004.51 1003.30 1002.83 1002.44 1001.99 1002.12 1001.17 1000.18 1001.71 1003.26 1004.10 1004.71 1005.65 1006.76 1007.50 1008.15 1008.87 1009.42 1009.79 1010.22 1010.48 1010.72 1010.75 1010.90 1011.13 1011.22 1011.12 1011.19 1011.36 1011.59 1011.73 1011.80 1011.88 1012.09 1012.23 1012.47 1012.79
1007.16 1006.61 1005.78 1004.65 1003.75 1003.78 1004.40 1004.50 1004.34 1003.70 1003.30 1003.62 1002.01 1001.20 1000.93 1001.65 1002.91 1003.95 1004.82 1006.07 1006.94 1007.70 1008.43 1008.94 1009.50 1009.90 1010.41 1010.56 1010.69 1010.96 1011.22 1011.37 1011.53 1011.62 1011.60 1011.56 1011.66 1011.87 1011.92 1012.04 1012.40 1012.78 1013.02 1013.21
1007.52 1006.65 1005.75 1005.28 1005.17 1005.04 1004.87 1004.69 1004.44 1004.02 1003.48 1002.67 1002.03 1001.75 1001.21 1001.82 1002.63 1003.84 1004.62 1005.81 1006.82 1007.72 1008.55 1009.20 1009.61 1009.90 1010.35 1010.54 1010.76 1011.14 1011.44 1011.61 1011.75 1011.78 1011.95 1012.05 1012.10 1012.23 1012.44 1012.62 1012.88 1013.17 1013.30 1013.38
1007.59 1007.05 1006.31 1005.49 1005.43 1005.47 1005.47 1005.03 1004.17 1003.52 1003.27 1002.34 1001.67 1001.69 1001.41 1001.95 1002.82 1004.03 1005.08 1006.16 1006.91 1007.82 1008.70 1009.31 1009.51 1009.79 1009.99 1010.49 1010.80 1011.28 1011.57 1011.84 1012.06 1012.19 1012.38 1012.58 1012.61 1012.54 1012.89 1013.08 1013.22 1013.32 1013.50 1013.63
1007.51 1006.78 1006.22 1005.67 1005.46 1005.33 1005.34 1005.10 1004.13 1003.27 1003.11 1002.88 1001.86 1001.73 1001.32 1001.99 1002.78 1003.77 1004.91 1006.06 1006.96 1007.94 1008.77 1009.35 1009.59 1009.81 1010.13 1010.51 1010.62 1011.27 1011.82 1012.10 1012.33 1012.63 1012.84 1013.15 1013.52 1013.73 1013.68 1013.70 1013.79 1013.72 1013.64 1013.68
1007.27 1006.38 1006.40 1006.04 1005.46 1005.31 1005.11 1004.99 1004.55 1003.97 1003.23 1002.81 1002.54 1002.27 1002.04 1002.16 1002.62 1003.66 1005.00 1006.14 1007.15 1008.15 1008.79 1009.36 1009.62 1009.92 1010.26 1010.45 1010.62 1011.16 1011.90 1012.31 1012.55 1012.99 1013.32 1013.61 1013.92 1014.07 1014.12 1014.06 1013.84 1013.86 1013.78 1013.96
1006.13 1005.77 1005.89 1005.53 1005.34 1005.04 1004.92 1004.69 1004.53 1004.06 1003.32 1002.91 1002.51 1002.29 1003.02 1002.22 1003.10 1004.04 1005.34 1006.45 1007.20 1007.98 1008.70 1009.30 1009.67 1009.95 1010.18 1010.43 1010.65 1011.10 1011.65 1012.14 1012.68 1013.18 1013.63 1013.91 1014.12 1014.25 1014.40 1014.59 1014.31 1014.17 1014.43 1014.60
1005.12 1005.30 1005.40 1005.17 1005.00 1004.56 1004.60 1004.27 1003.96 1003.58 1002.93 1002.37 1002.42 1002.94 1003.36 1004.71 1003.69 1004.43 1005.39 1006.30 1007.13 1008.09 1008.61 1009.17 1009.78 1010.10 1010.17 1010.29 1010.47 1010.95 1011.57 1012.01 1012.40 1012.78 1013.31 1013.76 1014.06 1014.26 1014.34 1014.47 1014.75 1015.03 1015.09 1015.11
1004.35 1004.31 1004.24 1004.26 1004.32 1004.11 1004.11 1004.01 1003.70 1003.43 1002.96 1002.18 1002.68 1003.38 1002.97 1004.78 1005.83 1005.03 1005.69 1006.43 1007.28 1008.11 1008.87 1009.20 1009.68 1010.01 1010.05 1010.10 1010.34 1010.92 1011.34 1011.99 1012.34 1012.68 1012.99 1013.30 1013.65 1014.09 1014.40 1014.55 1014.71 1014.95 1015.35 1015.53
1003.28 1003.40 1003.64 1003.93 1003.85 1003.61 1003.70 1003.62 1003.45 1003.26 1003.30 1002.78 1002.17 1003.18 1003.48 1004.69 1006.97 1006.12 1005.87 1006.50 1007.43 1008.45 1008.92 1009.08 1009.42 1009.68 1009.89 1010.11 1010.58 1011.03 1011.50 1011.88 1012.21 1012.56 1012.89 1013.19 1013.38 1013.66 1013.95 1014.22 1014.46 1014.64 1014.82 1015.00
1002.94 1003.11 1003.05 1003.25 1003.25 1003.04 1002.94 1002.78 1002.68 1002.77 1003.01 1003.10 1003.26 1003.40 1003.82 1004.31 1005.90 1006.98 1006.59 1006.23 1006.82 1007.79 1008.28 1008.70 1009.12 1009.56 1009.91 1010.24 1010.68 1011.14 1011.60 1012.04 1012.27 1012.59 1012.84 1013.05 1013.26 1013.41 1013.47 1013.69 1013.81 1014.06 1014.33 1014.33
1001.58 1001.43 1001.46 1001.72 1002.05 1002.13 1002.03 1002.03 1002.16 1002.49 1002.69 1002.82 1003.54 1003.25 1003.72 1004.74 1005.81 1006.61 1006.58 1006.41 1007.15 1007.91 1008.13 1008.29 1008.77 1009.29 1009.73 1010.16 1010.63 1011.12 1011.55 1011.95 1012.38 1012.63 1012.76 1012.96 1013.21 1013.25 1013.38 1013.59 1013.72 1013.99 1014.07 1014.21
1000.62 1000.56 1000.61 1000.86 1001.05 1001.30 1001.45 1001.46 1001.47 1001.84 1002.03 1001.62 1002.63 1003.14 1004.09 1004.87 1005.54 1006.30 1006.30 1006.63 1006.97 1007.47 1008.04 1008.31 1008.47 1009.05 1009.57 1009.91 1010.43 1010.98 1011.40 1011.83 1012.26 1012.42 1012.55 1012.89 1013.12 1013.15 1013.08 1013.19 1013.35 1013.57 1013.81 1014.08
1000.01 999.94 999.91 1000.07 1000.42 1000.80 1001.05 1001.03 1000.97 1001.48 1001.37 1001.20 1001.37 1002.40 1003.82 1004.28 1005.07 1006.03 1006.12 1006.20 1006.32 1006.75 1007.30 1008.01 1008.49 1008.93 1009.32 1009.77 1010.16 1010.58 1010.98 1011.49 1011.83 1012.00 1012.22 1012.42 1012.65 1012.86 1012.88 1012.72 1012.78 1013.05 1013.28 1013.41
998.95 998.86 999.04 999.46 1000.02 1000.42 1000.73 1000.77 1000.67 1000.75 1001.39 1001.12 1002.17 1002.70 1003.41 1004.28 1005.24 1005.58 1005.96 1006.35 1006.45 1006.60 1007.08 1007.61 1008.17 1008.65 1009.12 1009.59 1009.91 1010.32 1010.79 1011.09 1011.34 1011.50 1011.59 1011.68 1011.89 1012.12 1012.23 1012.10 1012.17 1012.30 1012.52 1012.77
997.94 998.04 998.50 999.02 999.55 1000.04 1000.50 1000.47 1000.21 1000.59 1000.79 1001.47 1002.19 1003.09 1003.89 1004.45 1004.90 1005.28 1005.33 1005.66 1005.95 1006.72 1007.13 1007.47 1007.88 1008.37 1008.78 1009.21 1009.62 1010.14 1010.55 1010.78 1010.92 1011.03 1011.06 1011.13 1011.25 1011.45 1011.68 1011.74 1011.73 1011.63 1011.77 1011.97
997.91 997.99 998.29 998.66 998.96 999.62 1000.38 1000.61 1000.74 1000.63 1001.09 1001.54 1002.12 1002.70 1003.54 1003.71 1004.35 1005.26 1005.52 1005.43 1005.90 1006.42 1006.69 1007.05 1007.42 1007.98 1008.41 1008.90 1009.30 1009.70 1010.08 1010.32 1010.47 1010.58 1010.62 1010.62 1010.66 1011.00 1011.20 1011.20 1011.26 1011.37 1011.44 1011.39
998.34 998.53 998.45 998.25 999.18 999.58 999.86 1000.75 1000.96 1001.12 1001.36 1001.47 1002.24 1003.02 1003.49 1004.00 1004.43 1004.49 1004.77 1005.20 1005.34 1005.91 1006.23 1006.72 1007.30 1007.72 1008.22 1008.69 1009.13 1009.46 1009.75 1010.04 1010.19 1010.17 1010.22 1010.21 1010.15 1010.20 1010.48 1010.73 1010.83 1010.70 1010.71 1010.60
998.59 998.63 998.86 999.44 999.81 1000.06 1000.19 1000.71 1000.89 1000.87 1001.14 1001.89 1002.31 1002.90 1003.26 1003.80 1003.89 1004.28 1004.39 1004.84 1005.25 1005.96 1006.11 1006.41 1006.82 1007.29 1007.96 1008.37 1008.73 1009.07 1009.35 1009.57 1009.68 1009.71 1009.60 1009.61 1009.80 1009.92 1009.85 1010.06 1010.22 1010.37 1010.68 1010.88
999.81 999.80 999.68 999.95 1000.30 1000.41 1000.86 1001.21 1001.68 1001.73 1002.33 1002.93 1003.34 1003.55 1003.84 1003.70 1003.82 1004.14 1004.33 1004.57 1005.00 1005.52 1006.27 1006.69 1007.05 1007.51 1007.68 1008.02 1008.37 1008.63 1008.82 1008.99 1009.06 1009.20 1009.27 1009.40 1009.54 1009.71 1009.89 1010.18 1010.71 1010.84 1011.02 1011.14
1000.54 1000.72 1000.74 1000.92 1001.10 1001.20 1001.29 1001.88 1002.49 1002.96 1003.32 1003.76 1003.79 1003.62 1003.61 1003.78 1004.01 1004.09 1004.19 1004.43 1004.80 1005.46 1005.97 1006.49 1006.95 1007.55 1008.26 1008.60 1008.97 1009.26 1009.43 1009.46 1009.46 1009.52 1009.70 1009.85 1010.02 1010.23 1010.46 1010.79 1011.10 1011.27 1011.46 1011.45
Wind_Speed
6 7 5 6 8 7 5 6 7 6 7 9 11 10 7 6 6 10 11 7 5 5 4 5 5 4 4 6 7 8 10 11 16 12 9 9 8 5 0 5 6 6 6 6
4 4 7 5 8 9 4 4 1 2 6 7 6 5 8 9 10 12 13 10 7 6 5 4 3 1 2 2 2 5 9 12 12 11 11 11 11 13 9 6 4 3 6 8
4 4 5 3 8 9 6 5 8 6 10 4 5 8 13 12 13 14 14 12 11 9 8 7 5 2 3 2 1 2 4 7 6 6 9 9 12 11 12 11 8 7 4 4
3 0 6 9 4 4 7 8 8 4 5 7 9 16 8 11 14 15 14 11 8 7 6 7 5 4 4 3 4 3 1 1 1 3 5 4 6 8 8 9 12 7 6 6
4 4 5 2 3 7 8 9 9 8 8 8 4 5 2 8 10 17 16 12 10 7 6 7 7 5 6 5 4 4 4 4 3 2 4 5 5 4 3 3 3 4 5 9
2 4 8 7 5 6 2 3 4 7 7 7 11 8 11 13 11 8 11 12 13 10 8 7 6 7 7 6 5 4 3 3 4 4 3 4 5 5 4 3 4 2 4 8
4 4 6 3 9 6 7 6 14 6 3 10 9 11 13 13 9 10 14 14 12 11 11 8 7 7 7 6 5 4 4 4 4 3 2 0 3 2 3 4 3 4 5 4
2 2 5 5 6 3 3 2 5 8 4 3 12 7 11 16 13 15 15 14 12 11 8 7 6 6 6 5 5 5 4 4 4 4 2 2 2 2 2 4 4 2 2 0
7 5 4 3 2 3 2 2 2 5 13 12 7 8 13 14 16 15 18 15 12 11 8 6 6 6 6 5 6 6 5 5 5 4 4 3 3 3 2 3 4 3 2 2
3 3 6 5 3 3 4 4 4 5 10 10 8 7 7 13 15 15 13 14 10 11 8 6 5 6 5 7 7 6 5 5 4 4 4 4 3 3 3 2 2 2 2 2
5 5 6 3 4 5 4 6 9 10 8 11 2 8 13 14 14 15 14 11 12 11 8 7 6 7 7 6 7 6 4 4 5 3 4 4 4 4 3 2 2 1 1 2
6 6 4 7 5 3 5 5 7 7 12 10 6 3 6 12 14 15 14 12 11 9 9 7 7 7 6 6 6 7 5 4 4 4 3 3 2 3 8 7 5 5 6 3
10 6 7 8 7 4 3 4 7 9 5 5 8 5 3 12 10 13 12 13 12 13 10 8 7 6 6 6 6 6 5 5 4 4 4 4 3 3 3 5 10 12 9 7
8 4 4 5 7 4 5 6 7 8 7 7 5 7 8 6 10 13 14 13 11 10 9 8 7 7 6 6 6 5 6 7 5 4 4 4 3 3 3 4 3 2 7 6
11 10 11 7 5 8 5 4 7 7 5 1 7 9 15 4 7 10 9 11 11 10 8 8 7 7 6 6 6 5 5 4 4 4 4 4 4 4 3 3 3 3 2 2
14 12 10 9 11 11 7 7 7 6 1 3 8 12 13 13 8 5 11 13 13 10 9 9 8 7 7 6 6 5 4 6 5 4 3 3 3 3 3 4 4 3 3 4
5 6 7 6 9 12 11 11 10 4 4 4 4 8 9 12 8 7 9 11 9 10 10 9 8 7 6 6 7 4 4 4 5 4 4 4 3 4 4 3 3 3 4 4
15 12 10 8 7 7 10 9 9 8 6 6 6 7 10 9 13 11 10 8 8 6 7 7 7 7 7 7 6 4 4 4 3 4 4 3 3 4 4 3 3 3 3 3
10 15 11 9 8 7 7 9 11 9 7 6 5 10 13 13 9 8 9 11 10 9 7 6 11 10 7 7 7 4 4 4 4 3 3 4 4 4 4 4 5 5 4 4
9 8 8 10 6 6 6 8 5 10 11 8 2 2 5 5 7 9 10 11 11 8 9 8 9 7 7 8 9 5 5 5 5 5 4 4 4 5 5 7 5 5 5 5
13 12 13 11 10 8 9 6 8 8 11 11 12 13 11 8 9 9 7 6 7 6 9 12 8 5 5 6 6 5 5 4 5 5 5 6 5 5 5 5 5 5 5 5
5 10 9 9 11 10 9 8 6 6 7 11 12 11 11 10 7 6 5 8 5 9 5 5 6 8 7 10 5 5 5 5 5 4 5 5 5 5 6 5 6 5 5 5
5 5 7 7 8 8 11 6 5 9 8 9 10 11 12 9 9 8 5 4 5 9 6 5 8 12 12 6 5 5 6 5 5 4 4 5 5 5 5 6 5 4 5 5
8 4 5 5 8 6 7 5 3 5 9 10 8 7 6 5 3 3 4 9 9 10 6 5 7 11 10 5 5 5 4 5 5 5 5 6 5 5 5 4 5 5 5 6
4 9 6 6 4 3 3 2 1 9 10 10 8 7 6 3 5 4 5 5 8 7 5 6 10 13 6 5 5 5 5 5 5 4 3 2 3 4 4 3 3 2 3 4
7 5 4 6 4 2 3 5 5 6 5 4 4 2 3 3 3 3 3 5 5 5 5 4 2 2 3 4 4 5 4 4 3 3 4 4 4 4 5 5 4 5 4 3
8 9 6 6 5 3 3 4 4 3 4 5 5 4 3 3 4 5 5 4 5 7 7 6 6 8 6 5 5 5 4 5 6 5 5 6 6 6 6 5 4 3 3 3
Wind_Direction
237 207 200 176 165 167 161 174 146 219 207 231 224 201 229 167 155 144 128 134 120 123 118 120 134 166 186 204 198 191 190 206 224 224 199 182 131 71 249 247 225 197 204 222
247 229 201 191 173 181 165 131 178 149 253 219 178 137 157 194 166 153 143 151 170 165 140 129 122 19 349 347 245 185 199 211 216 212 205 194 172 171 164 193 160 198 203 201
254 202 108 332 195 186 179 179 151 167 223 183 169 194 189 182 172 157 155 161 176 162 162 151 144 124 44 31 13 193 214 232 219 205 210 176 173 184 193 200 173 179 186 215
218 123 198 231 276 215 187 171 206 153 172 204 210 204 164 187 162 154 157 176 159 149 158 123 128 113 110 77 50 55 57 328 57 167 168 191 185 198 194 201 209 182 183 209
185 191 277 279 212 161 169 236 194 180 188 210 200 80 153 183 177 168 174 166 161 164 140 128 137 134 106 83 76 53 34 27 37 98 135 159 192 193 127 158 196 205 210 213
159 174 198 234 317 346 82 262 283 189 166 160 144 167 212 189 166 167 153 157 148 147 123 131 150 138 122 113 100 83 58 26 14 47 88 115 130 142 150 191 200 235 259 249
180 208 285 277 287 280 137 228 312 314 321 156 173 205 206 147 145 157 154 145 141 144 147 155 152 138 125 130 135 144 111 94 70 24 347 301 159 153 170 144 96 86 85 25
102 140 241 344 310 179 185 6 301 329 329 312 283 170 155 160 145 146 139 140 147 143 153 154 158 142 148 163 165 148 145 125 102 84 74 81 188 186 200 127 120 124 121 152
183 217 239 308 6 297 300 191 323 306 316 290 240 213 162 160 149 156 150 151 150 148 142 161 165 167 160 156 135 130 118 105 91 73 55 62 93 108 121 144 147 158 169 151
20 284 261 298 266 230 271 291 314 358 326 307 235 202 146 143 139 143 145 150 143 135 140 158 176 159 147 142 135 129 124 117 98 91 77 45 40 44 86 107 133 135 141 172
284 273 278 271 234 295 304 306 337 356 355 328 261 181 155 147 144 146 145 139 146 145 147 150 144 132 135 148 137 129 122 141 119 111 102 89 60 24 23 46 355 44 155 138
228 238 179 251 278 262 300 315 318 326 334 338 316 214 181 147 143 141 140 140 140 146 142 149 144 142 153 163 149 136 148 166 136 119 110 104 108 88 47 22 22 66 29 83
237 224 205 249 277 253 262 273 285 291 291 288 297 162 214 143 140 129 134 145 153 155 153 150 147 154 164 169 161 156 157 156 143 141 148 153 153 143 120 19 35 34 41 52
219 178 250 231 249 232 216 259 278 285 273 239 188 84 79 336 125 140 149 157 147 147 146 147 150 168 181 172 178 171 163 161 159 165 158 163 166 176 160 158 147 96 24 41
237 211 223 226 253 257 215 258 293 294 287 39 142 139 94 340 247 153 141 142 143 145 151 149 154 176 173 185 153 169 130 151 166 165 168 183 168 152 164 167 162 142 135 66
227 228 232 225 239 246 207 230 248 255 240 288 126 144 140 175 264 175 146 142 141 167 174 162 167 174 166 155 137 138 141 156 150 152 159 171 167 171 182 188 186 179 178 170
202 225 218 228 224 240 220 214 214 217 144 174 171 150 168 158 153 213 181 160 156 160 166 158 176 162 159 158 154 155 156 167 156 147 171 184 182 195 200 214 215 187 183 183
224 214 210 194 216 225 227 211 196 194 188 149 186 128 133 149 185 193 186 137 123 128 168 174 159 158 158 158 157 156 158 170 172 185 180 192 208 197 196 210 221 218 235 176
217 223 222 203 222 215 200 216 203 192 186 161 158 172 167 176 175 192 164 156 151 153 203 176 165 159 164 163 154 159 167 168 192 209 191 203 200 206 215 214 211 204 204 207
239 222 213 213 165 160 194 224 203 184 167 146 129 245 174 177 156 180 175 169 171 174 151 171 165 169 164 171 165 167 176 183 199 212 205 216 231 204 218 223 224 223 205 193
232 213 200 185 168 165 172 187 199 179 188 153 184 199 197 174 184 163 136 161 206 158 167 159 166 176 156 167 167 167 182 196 201 221 218 213 206 222 235 231 221 207 209 208
149 163 171 167 176 169 172 181 166 155 150 167 182 174 172 177 162 159 179 176 158 160 153 155 170 180 177 166 167 164 177 205 219 235 225 215 204 199 213 226 223 222 217 209
127 136 141 169 186 162 157 174 181 138 117 139 161 157 178 172 162 157 176 200 151 168 163 173 184 183 180 164 169 187 190 201 228 237 228 214 202 214 221 210 214 231 231 224
112 106 168 201 118 155 183 118 218 130 122 119 113 119 114 133 99 90 121 147 149 160 171 178 185 190 172 175 177 189 198 197 209 223 235 234 225 219 215 222 220 218 223 226
78 166 150 143 138 130 100 164 62 60 76 68 67 76 89 98 149 165 119 142 160 178 200 189 187 188 186 182 183 190 202 207 217 228 255 284 259 234 223 232 253 338 12 25
42 71 81 83 109 129 87 67 49 62 75 58 46 130 162 122 123 153 161 161 172 136 98 107 148 245 197 178 180 178 177 192 181 120 117 82 96 103 99 88 50 40 30 9
53 50 55 57 36 37 115 129 125 132 140 179 184 193 195 162 179 191 178 171 138 136 127 119 102 80 62 56 64 73 71 75 62 87 79 83 74 66 70 75 78 64 26 25